Date,TemperatureHighF,TemperatureAvgF,TemperatureLowF,DewpointHighF,DewpointAvgF,DewpointLowF,HumidityHigh,HumidityAvg,HumidityLow,PressureMaxIn,PressureMinIn,WindSpeedMaxMPH,WindSpeedAvgMPH,GustSpeedMaxMPH,PrecipitationSumIn
2013-3-1,42,29,20,23,20,13,88,69,33,30.27,30.13,19,9,0,0.00
2013-3-2,59,44,28,27,25,22,81,50,27,30.14,29.86,29,14,0,0.00
2013-3-3,52,42,31,34,29,26,94,62,40,29.87,29.47,34,10,0,0.00
2013-3-4,33,25,16,28,13,0,85,61,28,30.17,29.60,66,33,0,0.00
2013-3-5,29,18,10,10,7,4,82,62,36,30.34,30.13,43,16,0,0.00
2013-3-6,46,28,12,21,14,8,87,60,28,30.24,29.82,30,18,0,0.00
2013-3-7,53,37,26,25,21,17,80,55,26,30.08,29.75,28,12,0,0.00
2013-3-8,34,28,21,26,23,19,98,83,64,30.10,29.80,19,10,0,0.00
2013-3-9,38,27,21,29,24,15,98,86,56,30.05,29.73,37,19,0,0.00
2013-3-10,35,23,12,16,6,-1,87,54,21,30.18,29.96,28,16,0,0.00
2013-3-11,48,32,18,22,9,1,64,42,16,30.06,29.80,44,19,0,0.00
2013-3-12,37,26,17,14,2,-8,76,41,15,30.26,30.04,37,19,0,0.00
2013-3-13,62,40,19,30,13,-5,57,34,20,30.21,29.96,20,10,0,0.00
2013-3-14,71,53,39,30,24,20,59,35,15,30.14,29.90,18,10,0,0.00
2013-3-15,59,41,24,30,26,20,97,60,28,30.04,29.76,28,10,0,0.00
2013-3-16,28,23,19,23,18,14,96,83,65,30.10,29.91,32,11,0,0.00
2013-3-17,51,30,19,36,23,12,95,79,51,29.92,29.30,57,24,0,0.00
2013-3-18,34,22,12,15,3,-5,68,46,18,29.96,29.71,41,23,0,0.00
2013-3-19,38,26,15,19,6,-5,70,45,16,30.35,29.88,35,17,0,0.00
2013-3-20,45,26,11,10,4,-1,64,41,20,30.36,29.76,41,16,0,0.00
2013-3-21,42,29,21,23,16,7,96,60,35,29.81,29.62,32,21,0,0.00
2013-3-22,36,26,21,26,23,19,97,88,62,30.03,29.77,21,6,0,0.00
2013-3-23,26,19,10,23,11,5,97,71,55,30.20,30.01,30,17,0,0.00
2013-3-24,22,15,8,16,9,4,88,78,59,30.27,30.11,32,16,0,0.00
2013-3-25,30,17,7,13,9,4,87,71,46,30.32,30.16,19,10,0,0.00
2013-3-26,49,28,11,21,13,7,84,58,21,30.20,29.91,18,11,0,0.00
2013-3-27,52,33,16,25,17,8,92,58,17,30.10,29.99,17,7,0,0.00
2013-3-28,62,46,31,30,23,17,64,42,20,30.08,29.99,21,9,0,0.00
2013-3-29,68,51,36,34,26,21,65,40,18,30.08,29.87,17,8,0,0.00
2013-3-30,58,47,36,32,26,-100,80,49,21,30.10,29.95,37,15,0,0.00
2013-3-31,44,35,25,30,23,8,87,66,24,30.19,29.95,30,12,0,0.00